STARLINK-33759, 64007

Orbit data source: Space-Track

STARLINK-33759, 64007 is a payload satellite owned by SpaceX/Seattle (US) in LEO that was launched on Wed, 14 May 2025 UTC via an FALCON 9 launch vehicle from the Air Force Eastern Test Range (AFETR). Payload-class satellites include a variety of spacecraft equipped with specific instruments for various scientific and technological missions. These include communications satellites like Starlink; space stations such as the ISS; scientific satellites like the Hubble; Earth observation satellites from companies like Planet Labs, Umbra, and HawkEye 360; GPS; miniature CubeSats for education and research; and military/defense satellites.

Loading next visibility...
Identifier
64007, 2025-101P
Orbit
LEO
Country
Flag of USUS
Related business
Manufacturer
SpaceX/Seattle
Mission
Operational Commercial Communications
Bus & Motor
STARLINK V2MO, Unknown motor
Mass
575 kg wet, ~530 kg dry
Launch date (UTC)
2025-05-14 (1 year ago)
Launch vehicle
FALCON 9
Launch site
Air Force Eastern Test Range (AFETR)
Object type
Payload
Rocket body
Debris
Shape & HBR
Box + 2 Pan, 17.7 m
Radar Cross Section
36.964 m², Large (>1 m²)

Expand to show TLE details & history
Last TLE update: 14 hours ago

TLE from 14 hours ago
0 STARLINK-33759
1 64007U 25101P   26171.25370943  .00019427  00000-0  71358-3 0  9996
2 64007  43.0007 138.5096 0001452 279.1518  80.9169 15.27581498 62742
Epoch: 2026-06-20T06:05Z
TLE epoch observation values (Epoch: 2026-06-20T06:05:20.494Z)
Latitude
-0.00005°
Longitude
138.70317°
Altitude
482.663 km
Speed
7.626 km/s
True Right ascension
09h 14m 02s
True Declination
0° 00' 00"
Sunlit
Object was in daylight at epoch
Visualization orbit readout
Latitude
Unknown
Longitude
Unknown
Altitude
Unknown
Speed
Unknown
Apparent Right ascension
Unknown
Apparent Declination
Unknown
Sunlit
N/A
Visualization observer readout
Local Sidereal Time
07:12:19
Azimuth
Unknown
Elevation
Unknown
Doppler factor
Unknown
Orbital elements
Apogee altitude
485.986 km
Perigee altitude
483.993 km
Semi-major axis
6,863.127 km
Eccentricity
0.00015
Inclination
43.0007°
RAAN
138.5096°
Arg. of periapsis
279.1518°
True anomaly
80.93333°
Mean anomaly
80.9169°
Eccentric anomaly
80.92512°
Mean motion
3.81733 °/min
Orbital period
94.31 mins
BSTAR
0.00071358
Loading maneuver chart data...
Computing Atmospheric mass density...
Loading historical data...
Loading historical data...
Loading historical data...
Loading historical data...
Loading historical data...
Loading historical data...
Loading historical data...

Documentation

Showing up to 5 results
|